Regional Weather Roundup
Issued by NWS Green Bay, WI

Home | Current Version | Previous Version | Graphics & Text | Print | Product List | Glossary Off
Versions: 1 2 3 4 5 6 7 8 9 10 11 12 13 14 15 16 17 18 19 20 21 22 23 24 25 26 27 28 29 30 31 32 33 34 35 36 37 38 39 40 41 42 43 44 45 46 47 48 49 50

262
ASUS43 KGRB 162311
RWRGRB

NORTH-CENTRAL AND NORTHEAST WISCONSIN REGIONAL WEATHER ROUNDUP
NATIONAL WEATHER SERVICE GREEN BAY WI
600 PM CDT WED AUG 16 2017

WIZ005-009-010>012-018-019-170000-
NORTH CENTRAL WISCONSIN

CITY           SKY/WX    TMP DP  RH WIND       PRES   REMARKS
IRONWOOD       CLOUDY    75  59  57 SE8       29.91S
MANITOWISH WTR CLOUDY    72  61  69 SE7       29.92F
ARBOR VITAE    MOSUNNY   74  61  62 SE9       29.92F
EAGLE RIVER    CLOUDY    72  56  56 SE6       29.94F
LAND O LAKES   MOSUNNY   73  55  53 SE8       29.97S
RHINELANDER    MOSUNNY   71  59  65 E10       29.94F
PHILLIPS       CLOUDY    73  62  69 E9        29.89F
ANTIGO         MOSUNNY   70  60  69 SE10      29.95S
TOMAHAWK         N/A     72  60  66 E5        29.92F
MERRILL        NOT AVBL
$$

WIZ013-073-170000-
NORTHEAST WISCONSIN

CITY           SKY/WX    TMP DP  RH WIND       PRES   REMARKS
IRON MOUNTAIN  CLOUDY    74  56  53 SE8       29.95S
MARINETTE      CLOUDY    71  62  73 E9        29.96S
OCONTO         CLOUDY    72  62  71 E8        29.94F
$$

WIZ017-030-035>037-045-170000-
CENTRAL WISCONSIN

CITY           SKY/WX    TMP DP  RH WIND       PRES   REMARKS
MEDFORD        CLOUDY    72  64  74 E9        29.88F
WAUSAU         CLOUDY    73  62  68 E12       29.88F
MOSINEE        PTSUNNY   73  64  73 E9        29.91F
MARSHFIELD     CLOUDY    75  63  66 E10       29.86F
WISC RAPIDS    MOSUNNY   77  65  66 E9        29.87F
STEVENS POINT  PTSUNNY   74  63  67 E13       29.89F
WAUPACA        CLOUDY    78  64  61 E10       29.89F
SHAWANO        PTSUNNY   74  63  67 E8        29.93F
CLINTONVILLE   PTSUNNY   73  63  68 E7        29.91F
WAUTOMA        CLOUDY    77  67  71 E15       29.86
$$

WIZ038-039-048-051-170000-
FOX VALLEY

CITY           SKY/WX    TMP DP  RH WIND       PRES   REMARKS
NWS GREEN BAY  MOSUNNY   74  65  73 E9        29.92F
APPLETON       PTSUNNY   75  59  57 E10       29.90F
OSHKOSH        CLOUDY    75  64  68 E13       29.89F
FOND DU LAC    MOSUNNY   76  61  59 E10       29.89F
$$

WIZ022-050-052-170000-
EAST CENTRAL WISCONSIN

CITY           SKY/WX    TMP DP  RH WIND       PRES   REMARKS
EPHRAIM        FAIR      69  61  76 E6        29.96S
WASHINGTON ISL FAIR      69  62  79 E3        29.95F
STURGEON BAY   NOT AVBL
MANITOWOC      CLOUDY    71  61  70 E8        29.94F
SHEBOYGAN      PTSUNNY   71  65  81 E8        29.92F
$$

LMZ563-521-522-541>543-170000-
LAKESHORE

STATION/POSITION TIME  TEMP    WIND        PRES    VSBY  WAVE
                       AIR SEA DIR/SP/G                  HT/PER
                 (UTC) (F)     (DEG/KT/KT) (MB)    (MI)  (FT/S)
SHEBOYGAN LKSHOR 2300   69      50/  8/  9 1012.8F
KEWAUNEE LKSHORE 2242   70      50/  3/  6 1013.8R
NORTHPORT PIER   2240   69      80/  6/  7 1014.2F
N MID LAKE BUOY  2250   68 69   60/  8/  8 1014.7F         1
S GREEN BAY BUOY 2300   71 72   60/ 10/ 12 1013.8
SISTER BAY LKSHO 2303   72     130/  6/  8   N/A
MENOMINEE LKSHOR 2242   69      30/  9/  9 1013.9F
$$




USA.gov is the U.S. government's official web portal to all federal, state and local government web resources and services.